Flag for U.S.A. Weather past 2 weeks in Aurora, Illinois, U.S.A.

Now
16 °F

Clear.


Feels Like: 10 °F
Forecast: 18 / 38 °F
Wind: 3 mph from North

Location: Dupage Airport

Current Time: Mar 28, 2015 at 7:57:38 AM

Latest Report: Mar 28, 2015 at 6:52 AM


Visibility: 10 mi

Pressure: 30.30 "Hg

Humidity: 80%

Dew point: 11 °F

Location of AuroraLocation

Historic Weather in Aurora — Graph

°F

Aurora temperature yesterday

Maximum temperature yesterday: 34 °F (at 4:52 PM)
Minimum temperature yesterday: 20 °F (at 9:52 PM)
Average temperature yesterday: 27 °F

Past Weeks' High & Low Weather Summary

 TemperatureHumidityPressure
High72 °F (Mar 16, 3:52 PM)97% (Mar 21, 5:52 AM)30.36 "Hg (Mar 21, 5:52 AM)
Low14 °F (Mar 28, 4:52 AM)21% (Mar 18, 12:52 PM)29.74 "Hg (Mar 16, 5:52 PM)
Average39 °F63%30.14 "Hg
* Reported Mar 13 6:52 AM — Mar 28 6:52 AM, Aurora, Weather by CustomWeather, © 2015

Note: Actual official high and low records may vary slightly from our data, if they occured in-between our weather recording intervals... More about our weather records

Advertising

Aurora weather history for previous 24 hours

 ConditionsComfort  
Time TempWeatherWind HumidityBarometerVisibility
6:52 AM
Sat, Mar 28
16 °FClear.3 mph80%30.30 "Hg10 mi
5:52 AM15 °FClear.3 mph80%30.28 "Hg10 mi
4:52 AM14 °FClear.5 mph87%30.26 "Hg10 mi
3:52 AM17 °FClear.No wind76%30.25 "Hg10 mi
2:52 AM17 °FClear.6 mph76%30.25 "Hg10 mi
1:52 AM18 °FClear.No wind74%30.25 "Hg10 mi
12:52 AM19 °FClear.5 mph74%30.24 "Hg10 mi
11:52 PM
Fri, Mar 27
20 °FClear.5 mph71%30.24 "Hg10 mi
10:52 PM20 °FClear.5 mph71%30.24 "Hg10 mi
9:52 PM20 °FClear.6 mph71%30.24 "Hg10 mi
8:52 PM23 °FClear.8 mph65%30.22 "Hg10 mi
7:52 PM25 °FSunny.10 mph60%30.21 "Hg10 mi
6:52 PM27 °FSunny.12 mph55%30.19 "Hg10 mi
5:52 PM30 °FSunny.12 mph47%30.17 "Hg10 mi
4:52 PM34 °FSunny.10 mph32%30.15 "Hg10 mi
3:52 PM33 °FSunny.10 mph32%30.15 "Hg10 mi
2:52 PM33 °FSunny.9 mph32%30.15 "Hg10 mi
1:52 PM32 °FSunny.13 mph35%30.17 "Hg10 mi
12:52 PM30 °FPassing clouds.7 mph36%30.18 "Hg10 mi
11:52 AM29 °FSunny.16 mph34%30.18 "Hg10 mi
10:52 AM28 °FSunny.15 mph35%30.19 "Hg10 mi
9:52 AM26 °FSunny.20 mph38%30.18 "Hg10 mi
8:52 AM25 °FSunny.18 mph42%30.17 "Hg10 mi
7:52 AM23 °FMore clouds than sun.17 mph53%30.16 "Hg10 mi
Weather by CustomWeather, © 2015

See weather overviewHow to use our weather pages